Regional Weather Roundup
Issued by NWS

Home | Current Version | Previous Version | Graphics & Text | Print | Product List | Glossary On
Versions: 1 2 3 4 5 6 7 8 9 10 11 12 13 14 15 16 17 18 19 20 21 22 23 24 25 26 27 28 29 30 31 32 33 34 35 36 37 38 39 40 41 42 43 44 45 46 47 48 49 50
000
ASUS43 KLMK 261802
RWRKY
KENTUCKY REGIONAL WEATHER ROUNDUP
NATIONAL WEATHER SERVICE LOUISVILLE KY
200 PM EDT SAT MAY 26 2018

NOTE "FAIR" INDICATES FEW OR NO CLOUDS BELOW 12,000 FEET
WITH NO SIGNIFICANT WEATHER AND/OR OBSTRUCTIONS TO VISIBILITY.

KYZ001>023-026-027-061>063-070>075-261900-
WESTERN AND SOUTH CENTRAL KENTUCKY

CITY           SKY/WX    TMP DP  RH WIND       PRES   REMARKS
PADUCAH        PTSUNNY   81  70  69 CALM      29.86F
HENDERSON      FAIR      84  69  60 SW10G16   29.85F
OWENSBORO      PTSUNNY   84  70  62 SW12      29.86F
HOPKINSVILLE   PTSUNNY   81  70  69 CALM      29.88F
BOWLING GREEN  FAIR      82  70  66 S7        29.90S
GLASGOW        NOT AVBL
$$

KYZ024-025-028>034-038-045-046-053-261900-
NORTH CENTRAL KENTUCKY

CITY           SKY/WX    TMP DP  RH WIND       PRES   REMARKS
LOUISVILLE/SDF PTSUNNY   83  69  62 W10G17    29.85F
LOUISVILLE/LOU FAIR      83  71  67 S10       29.86F
FORT KNOX      FAIR      80  69  70 SW8       29.88F
$$

KYZ035>037-039>044-047>052-055>060-089>105-261900-
NORTHEAST KENTUCKY

CITY           SKY/WX    TMP DP  RH WIND       PRES   REMARKS
LEXINGTON      FAIR      81  67  62 SW9G17    29.89F
COVINGTON      PTSUNNY   83  67  58 SW9       29.85F
FRANKFORT      PTSUNNY   83  67  58 SW9       29.86F
$$

KYZ054-064>069-076>088-106>120-261900-
SOUTHEAST KENTUCKY

CITY           SKY/WX    TMP DP  RH WIND       PRES   REMARKS
JACKSON        FAIR      80  68  66 CALM      29.93F
LONDON         LGT RAIN  77  69  76 W8        29.92F
SOMERSET       NOT AVBL
MIDDLESBORO    CLOUDY    75  69  83 N5        29.95S
MONTICELLO     MOCLDY    82  69  64 VRB5G16   29.93F
$$





USA.gov is the U.S. government's official web portal to all federal, state and local government web resources and services.